Zurück zum Katalog

USA 125 DEB

AktivHEO
NORAD 23947·DEBRIS·🇺🇸 United States

Gestartet Jul 3, 1996 von Cape Canaveral Space Force Station

Loading…

Nächste Überflüge (nächste 24 Stunden)

TLE

AktuellSource: Space-Track

Epoche: Sep 13, 2026, 09:04 UTC

1 23947U 96038C   26256.37815272  .00000412  00000-0  12705-3 0  9992
2 23947  55.3108 163.4149 4991675 250.1168  50.9745  5.57417529145499

Verfolge USA 125 DEB in Echtzeit mit AllMySat

Download on the App Store